This demonstration page uses our WeatherBlox Daily Observations layout. Learn more.

Left ArrowRight Arrow

Hourly Observations for August 8, 2021

Temp ( °F °C ) Dew Point ( °F °C ) Humidity (%) Winds ( mph kmh ) Pressure ( in mb ) Visibility ( mi km ) Precip ( " mm )
12:59 am 00:59 Mostly Cloudy 72 22.2 68 20 87 87 NW 10 17 30.04 1017 10 16 0.00 0.00
1:31 am 01:31 Partly Cloudy 72 22.2 67 19.4 84 84 NW 6 9 30.03 1017 10 16 0.00 0.00
1:59 am 01:59 Mostly Clear 72 22.2 66 18.9 82 82 NW 6 9 30.02 1017 10 16 0.00 0.00
2:59 am 02:59 Partly Cloudy 70 21.1 66 18.9 87 87 WNW 3 6 30.03 1017 10 16 0.00 0.00
3:59 am 03:59 Cloudy 72 22.2 67 19.4 84 84 WNW 7 11 30.02 1017 10 16 0.00 0.00
4:59 am 04:59 Cloudy 72 22.2 67 19.4 84 84 NW 8 13 30.02 1017 10 16 0.00 0.00
5:59 am 05:59 Cloudy 70 21.1 66 18.9 87 87 WNW 7 11 30.03 1017 10 16 0.00 0.00
6:59 am 06:59 Cloudy 70 21.1 66 18.9 87 87 N 6 9 30.05 1018 9 14 0.00 0.00
7:15 am 07:15 Cloudy 70 21.1 66 18.9 87 87 NNW 6 9 30.06 1018 9 14 0.00 0.00
7:55 am 07:55 Cloudy 72 22 66 19 83 83 NW 7 11 30.06 1018 9 14 0.00 0.00
7:59 am 07:59 Cloudy 71 21.7 66 18.9 84 84 NW 6 9 30.06 1018 9 14 0.00 0.00
8:15 am 08:15 Mostly Cloudy 71 21.7 66 18.9 84 84 NNW 5 7 30.07 1018 9 14 0.00 0.00
8:59 am 08:59 Mostly Cloudy 72 22.2 65 18.3 79 79 NW 8 13 30.07 1018 9 14 0.00 0.00
9:59 am 09:59 Mostly Cloudy 72 22.2 65 18.3 79 79 WSW 7 11 30.08 1019 9 14 0.00 0.00
10:28 am 10:28 Mostly Cloudy 74 23.3 66 18.9 76 76 W 6 9 30.09 1019 9 14 0.00 0.00
10:59 am 10:59 Cloudy 74 23.3 66 18.9 76 76 W 5 7 30.09 1019 9 14 0.00 0.00
11:59 am 11:59 Mostly Cloudy 75 23.9 67 19.4 76 76 WSW 5 7 30.09 1019 10 16 0.00 0.00
12:59 pm 12:59 Cloudy 77 25 67 19.4 71 71 W 7 11 30.09 1019 10 16 0.00 0.00
1:59 pm 13:59 Cloudy 78 25.6 66 18.9 67 67 VRB 3 6 30.10 1019 10 16 0.00 0.00
2:59 pm 14:59 Mostly Cloudy 80 26.7 67 19.4 64 64 NNW 5 7 30.09 1019 10 16 0.00 0.00
3:06 pm 15:06 Mostly Cloudy 82 27.8 67 19.4 60 60 NW 6 9 30.09 1019 10 16 0.00 0.00
3:26 pm 15:26 Mostly Cloudy 80 26.7 67 19.4 64 64 N 7 11 30.09 1019 10 16 0.00 0.00
3:59 pm 15:59 Mostly Cloudy 81 27.2 68 20 65 65 NNE 3 6 30.09 1019 10 16 0.00 0.00
4:59 pm 16:59 Mostly Cloudy 82 27.8 67 19.4 60 60 NNE 6 9 30.08 1019 10 16 0.00 0.00
5:59 pm 17:59 Partly Cloudy 82 27.8 67 19.4 60 60 Calm 30.09 1019 10 16 0.00 0.00
6:59 pm 18:59 Partly Cloudy 81 27.2 67 19.4 62 62 VRB 3 6 30.09 1019 10 16 0.00 0.00
7:59 pm 19:59 Partly Cloudy 75 23.9 68 20 79 79 E 3 6 30.09 1019 10 16 0.00 0.00
8:59 pm 20:59 Mostly Clear 72 22.2 68 20 87 87 Calm 30.09 1019 10 16 0.00 0.00
9:59 pm 21:59 Mostly Clear 73 22.8 68 20 84 84 Calm 30.11 1020 10 16 0.00 0.00
10:59 pm 22:59 Clear 71 21.7 67 19.4 87 87 Calm 30.11 1020 9 14 0.00 0.00
11:59 pm 23:59 Clear 70 21.1 67 19.4 90 90 SSE 3 6 30.12 1020 8 13 0.00 0.00

Powered by AerisWeather